Location: Dos Palmas
(32.4468°N, 116.8732°W)
Time: 16:22:42
(UTC+00:00)

Cosmos 2237 Rocket - Pass Details

Date: 20 June 2021
Orbit: 835 x 850 km, 71.0° (Epoch: 27 July)

Event Time Altitude Azimuth Distance (km) Brightness Sun altitude
Exits shadow 07:07:32 31° 292° (WNW) 1,415 3.5 -33.2°
Maximum altitude 07:07:47 32° 297° (WNW) 1,412 3.6 -33.3°
Drops below altitude 10° 07:12:45 10° 359° (N) 2,449 5.4 -33.4°
Sets 07:15:28 0° 10° (N) 3,386 6.3 -33.5°
